Location: Newark
(44.3681°N, 100.3364°W)
Time: 14:52:35
(UTC+00:00)

SR - Pass Details

Date: 02 March 2020
Orbit: 578 x 878 km, 66.7° (Epoch: 31 March)

Event Time Altitude Azimuth Distance (km) Brightness Sun altitude
Rises 02:28:59 0° 335° (NNW) 3,333 ? -21.9°
Reaches altitude 10° 02:32:53 10° 1° (N) 2,330 ? -22.6°
Enters shadow 02:35:20 13° 29° (NNE) 2,054 ? -23.0°
